Wind_Speed
30 30 31 31 30 30 30 30 30 30 31 31 31 31 32 32 32 32 33 33 33 33 34 35 36 36 35 35 35 35 35 35 36 37 36 36 37 36
29 29 29 30 30 30 30 30 30 30 30 31 31 31 31 30 30 30 31 31 31 32 34 35 34 33 34 34 34 34 34 34 35 35 34 34 34 34
28 28 28 28 28 29 29 29 28 28 28 29 29 30 30 30 30 30 29 30 31 32 33 34 34 34 33 33 32 33 33 33 34 33 32 32 32 31
26 26 26 27 27 27 28 28 27 27 27 27 28 28 28 28 28 29 29 29 29 30 31 32 32 33 32 32 31 32 32 32 33 32 30 30 30 30
24 24 25 25 25 26 26 26 26 26 27 27 27 26 27 27 27 27 28 28 29 29 29 30 30 31 30 30 30 30 30 30 30 30 28 28 28 28
23 23 23 24 24 24 24 24 24 25 25 26 26 26 25 25 26 26 26 26 27 28 28 29 28 29 29 29 29 28 28 27 27 27 27 27 27 28
22 21 21 22 22 22 22 23 23 23 24 24 25 25 24 23 24 24 24 23 24 24 25 26 27 27 27 27 26 26 27 26 25 25 26 26 26 27
19 20 20 20 20 20 21 21 21 21 21 21 22 22 22 22 22 21 21 21 21 21 22 23 24 25 25 25 25 24 23 23 23 24 25 25 25 24
17 17 17 17 17 17 18 18 18 18 18 17 18 18 18 18 19 18 18 18 19 19 19 20 21 21 21 21 21 21 20 20 21 21 22 22 21 22
13 13 13 13 14 14 14 14 15 15 15 14 14 14 14 13 13 14 14 15 16 16 16 17 18 18 18 17 17 17 17 18 18 18 19 19 20 20
9 8 8 9 9 10 10 10 11 11 11 11 10 10 10 10 10 11 12 12 12 12 12 12 12 12 13 13 13 14 14 15 16 16 17 18 18 19
5 5 5 5 5 5 6 6 7 7 8 8 8 8 7 7 7 7 7 8 8 7 7 8 9 9 10 10 11 12 12 13 14 15 16 16 17 17
3 3 2 1 1 2 3 3 4 4 5 5 5 4 4 3 3 4 4 4 4 5 6 7 8 8 8 9 9 11 12 13 14 15 15 16 16 17
3 3 3 3 3 4 5 5 4 4 4 4 4 4 3 2 2 2 2 3 3 5 5 6 7 7 7 8 9 11 12 13 14 15 15 16 17 19
6 6 6 6 7 7 7 6 6 6 6 5 5 5 4 2 1 0 1 2 4 5 6 5 6 6 8 8 9 10 11 12 14 15 16 17 19 20
8 8 9 9 10 10 9 9 9 8 7 6 5 4 4 3 2 2 2 2 3 4 5 6 6 7 8 9 10 11 12 13 14 15 16 17 18 19
11 11 12 12 12 11 11 10 9 9 9 8 7 6 5 5 4 4 4 3 4 5 6 7 8 8 9 10 12 13 14 15 16 17 17 18 19 20
11 12 13 13 13 12 12 12 11 11 10 9 8 7 6 6 5 5 5 5 6 7 8 8 9 10 11 12 13 14 15 16 17 17 18 19 20 22
13 13 13 13 13 13 12 11 10 9 8 7 7 7 6 6 6 6 7 7 8 9 9 10 11 12 13 14 15 16 17 17 18 19 20 22 23 24
13 13 13 13 12 12 11 11 10 9 8 8 7 7 7 7 7 8 8 8 9 10 11 12 13 14 16 16 17 17 18 19 20 21 23 24 25 26
12 12 13 13 12 12 11 10 9 9 9 8 8 8 8 8 8 8 9 10 11 12 13 14 16 17 18 18 19 19 20 21 22 24 25 27 27 28
12 12 12 11 11 10 10 9 9 9 9 9 9 9 9 9 9 10 11 12 13 14 16 17 18 19 20 20 21 22 22 24 25 27 28 29 30 31
11 10 10 9 9 9 9 8 8 8 8 8 9 9 10 10 11 12 13 14 16 17 18 19 20 21 22 23 24 25 26 27 29 30 31 32 33 33
Wind_Direction
269 267 265 265 265 264 264 264 263 262 263 263 263 262 262 262 261 261 259 258 258 258 260 261 259 261 261 261 261 262 265 266 268 269 270 270 270 271
270 268 265 264 264 264 264 265 264 262 262 261 261 261 262 262 262 262 261 259 260 260 261 261 260 261 262 263 264 265 266 267 269 271 272 273 274 273
270 268 266 264 264 264 264 264 265 263 261 260 260 261 262 262 263 263 262 261 261 261 260 261 263 264 265 264 265 266 267 268 270 271 272 273 274 273
270 269 267 266 265 264 264 263 264 262 261 261 260 261 262 262 262 264 263 263 264 263 264 265 267 269 268 267 267 268 270 270 270 271 272 272 272 274
270 269 267 266 265 264 264 263 263 263 261 259 259 261 262 262 262 263 265 264 266 266 268 269 269 271 272 272 272 271 272 273 272 271 272 274 275 277
272 271 269 267 265 264 263 262 262 262 262 260 260 261 261 261 262 263 266 267 267 267 268 269 269 271 273 274 274 272 271 274 274 274 275 277 278 279
274 272 270 268 266 263 262 262 262 261 261 261 259 260 260 261 262 263 265 267 268 269 271 270 270 272 274 275 277 277 276 276 276 277 277 278 280 280
275 273 271 269 267 264 262 261 260 260 261 261 259 260 259 260 260 262 264 268 270 272 272 272 272 275 276 276 279 280 281 280 277 278 279 279 279 280
279 275 271 268 265 262 260 259 259 259 259 260 260 260 259 259 260 262 263 266 269 271 272 274 276 277 278 279 280 281 282 282 280 279 279 279 279 280
283 280 275 268 263 259 258 257 256 255 254 255 259 259 256 256 257 259 261 267 270 271 276 278 277 277 279 279 280 281 281 282 280 279 279 280 281 281
288 282 277 268 262 257 252 249 248 249 249 248 251 253 250 249 251 256 260 267 270 274 275 276 280 282 282 283 282 281 280 281 281 282 281 281 282 282
308 302 282 270 261 244 235 233 235 237 239 236 240 244 243 243 246 250 256 264 272 278 277 282 289 292 290 287 284 282 283 285 286 285 285 286 285 285
340 337 319 260 195 194 196 195 201 209 213 215 219 217 207 208 221 234 253 274 283 287 291 294 295 296 295 292 289 291 292 292 291 290 289 289 288 289
40 48 61 84 101 115 129 136 146 154 154 155 156 154 153 161 188 230 275 294 291 299 305 306 303 303 305 303 301 300 301 299 296 294 293 292 292 292
70 77 86 94 101 107 114 115 119 123 126 131 134 135 139 139 126 9 317 297 296 303 307 310 310 309 308 306 305 304 304 302 300 299 298 297 296 295
81 81 90 92 97 99 104 106 109 109 113 120 126 121 113 95 62 32 14 349 327 324 327 326 321 315 313 311 308 306 306 305 305 305 303 301 300 300
83 86 89 91 92 93 97 102 101 99 101 101 94 87 80 64 50 47 35 11 357 354 348 340 332 326 321 316 315 311 308 307 307 307 306 304 304 303
82 85 88 89 91 94 96 97 95 93 90 87 86 79 68 59 52 43 32 22 12 3 352 344 337 331 326 322 318 315 313 310 309 308 306 305 304 303
86 85 87 88 90 93 92 90 88 86 83 80 73 62 59 53 44 38 31 20 9 359 351 344 337 332 328 324 321 320 317 314 310 309 308 307 306 305
84 85 85 87 88 88 87 85 82 78 74 69 62 55 49 43 36 29 21 10 359 352 346 340 334 330 326 323 321 319 317 315 314 312 310 308 307 305
82 83 83 83 83 83 83 80 75 70 66 60 56 51 43 34 25 15 6 357 350 345 340 336 331 328 325 323 320 318 316 315 314 313 311 310 308 307
81 82 80 79 79 76 73 71 67 63 59 53 44 35 25 16 7 359 353 347 343 339 336 333 331 329 326 322 320 318 317 315 314 313 313 312 310 308
78 76 75 72 69 66 64 61 56 50 43 34 25 16 8 2 356 350 346 342 339 336 334 331 330 328 326 323 320 319 317 316 314 313 312 312 311 310
Height
5772 5772 5773 5773 5774 5774 5775 5775 5776 5776 5777 5778 5779 5780 5780 5781 5782 5782 5783 5784 5785 5785 5786 5786 5786 5787 5787 5788 5789 5789 5789 5789 5789 5789 5789 5788 5787 5787
5764 5764 5764 5765 5766 5766 5767 5767 5768 5769 5770 5771 5771 5772 5773 5773 5774 5775 5776 5776 5777 5778 5778 5778 5778 5779 5780 5780 5781 5781 5781 5781 5781 5780 5780 5779 5779 5778
5756 5756 5757 5757 5758 5758 5759 5759 5760 5761 5762 5763 5763 5764 5765 5766 5767 5768 5769 5769 5770 5770 5771 5771 5771 5771 5772 5772 5772 5773 5773 5773 5772 5772 5771 5771 5770 5769
5749 5749 5749 5750 5750 5751 5751 5752 5753 5753 5754 5755 5756 5757 5758 5759 5760 5761 5762 5762 5762 5763 5763 5764 5764 5764 5764 5764 5765 5765 5765 5765 5764 5764 5763 5763 5762 5761
5741 5742 5742 5742 5743 5743 5744 5744 5745 5746 5747 5748 5749 5750 5751 5752 5753 5754 5754 5755 5755 5756 5756 5756 5757 5756 5756 5757 5757 5757 5757 5757 5757 5756 5755 5755 5754 5753
5734 5734 5735 5735 5735 5736 5737 5737 5738 5739 5739 5740 5741 5743 5744 5745 5746 5747 5748 5748 5749 5749 5749 5749 5750 5750 5750 5750 5750 5750 5750 5749 5749 5748 5748 5747 5747 5746
5727 5727 5728 5728 5728 5729 5730 5731 5731 5732 5733 5734 5735 5736 5737 5738 5739 5740 5741 5742 5742 5742 5742 5742 5743 5743 5743 5743 5743 5743 5742 5742 5741 5741 5741 5740 5739 5739
5721 5721 5721 5722 5722 5723 5723 5724 5725 5726 5727 5728 5729 5730 5731 5732 5733 5734 5735 5736 5736 5736 5736 5736 5736 5736 5736 5736 5736 5736 5735 5735 5735 5734 5734 5733 5732 5732
5716 5715 5715 5715 5716 5717 5717 5718 5719 5721 5722 5722 5723 5724 5725 5726 5727 5728 5729 5730 5730 5730 5730 5730 5730 5730 5730 5730 5729 5729 5729 5729 5728 5728 5727 5727 5726 5726
5711 5710 5710 5710 5710 5711 5712 5713 5714 5715 5717 5718 5719 5720 5721 5722 5723 5724 5725 5725 5726 5726 5725 5726 5725 5725 5725 5724 5724 5724 5724 5724 5723 5723 5722 5721 5721 5720
5707 5707 5706 5706 5706 5707 5707 5709 5710 5711 5713 5714 5715 5716 5717 5718 5720 5721 5722 5722 5722 5722 5721 5721 5721 5721 5720 5720 5719 5719 5719 5719 5718 5717 5717 5716 5715 5714
5705 5704 5704 5704 5704 5704 5705 5706 5708 5709 5710 5711 5713 5714 5715 5716 5717 5718 5719 5719 5719 5719 5719 5718 5718 5717 5717 5716 5716 5715 5715 5714 5713 5713 5712 5711 5710 5709
5704 5703 5703 5702 5702 5703 5704 5705 5707 5708 5709 5710 5711 5713 5714 5715 5716 5716 5717 5717 5717 5717 5717 5716 5716 5715 5714 5714 5713 5712 5711 5710 5709 5708 5707 5706 5705 5704
5704 5703 5703 5703 5703 5703 5704 5705 5706 5708 5709 5710 5711 5712 5713 5714 5715 5716 5716 5716 5716 5716 5715 5714 5714 5713 5712 5711 5710 5709 5708 5707 5705 5704 5703 5702 5701 5699
5705 5704 5704 5704 5704 5705 5705 5706 5707 5708 5710 5711 5712 5713 5714 5714 5715 5715 5715 5715 5715 5714 5713 5713 5712 5711 5710 5709 5708 5707 5705 5704 5702 5701 5699 5697 5695 5694
5707 5706 5706 5706 5706 5707 5707 5708 5709 5710 5711 5712 5713 5713 5714 5714 5714 5714 5714 5714 5714 5713 5712 5711 5710 5709 5708 5707 5705 5704 5702 5700 5699 5696 5694 5692 5690 5688
5710 5709 5709 5709 5709 5709 5710 5711 5712 5712 5713 5713 5714 5714 5714 5715 5715 5714 5714 5714 5713 5712 5711 5710 5708 5707 5706 5704 5702 5700 5698 5697 5694 5692 5690 5688 5685 5682
5713 5713 5712 5712 5713 5713 5713 5714 5714 5715 5715 5715 5716 5716 5716 5716 5715 5714 5714 5713 5712 5711 5710 5708 5707 5705 5703 5701 5699 5697 5695 5692 5690 5687 5685 5682 5679 5677
5717 5717 5716 5716 5716 5717 5717 5717 5717 5718 5718 5718 5718 5717 5717 5716 5716 5715 5714 5713 5711 5710 5708 5706 5705 5702 5700 5698 5696 5693 5690 5687 5685 5682 5679 5676 5673 5670
5721 5721 5721 5720 5720 5720 5720 5721 5720 5720 5720 5720 5719 5718 5718 5717 5716 5715 5714 5712 5711 5709 5707 5705 5702 5700 5697 5695 5692 5689 5686 5682 5679 5676 5673 5670 5667 5663
5725 5725 5725 5724 5724 5724 5724 5723 5723 5723 5722 5721 5721 5720 5718 5717 5716 5715 5713 5712 5710 5707 5705 5703 5700 5697 5693 5690 5687 5685 5682 5678 5674 5670 5666 5663 5659 5655
5729 5729 5728 5728 5728 5727 5727 5726 5725 5725 5724 5723 5722 5721 5719 5718 5716 5714 5712 5710 5708 5705 5702 5699 5696 5693 5689 5686 5683 5679 5676 5672 5668 5664 5660 5656 5651 5646
5732 5732 5732 5731 5730 5730 5729 5728 5727 5726 5725 5724 5723 5721 5719 5717 5715 5713 5711 5708 5705 5702 5699 5696 5692 5688 5685 5681 5677 5673 5670 5665 5661 5657 5653 5648 5643 5638